Rugby, ND

7:17 AM CST on December 15, 2019 (GMT -0600)
Rugby Municipal

Weather History for KRUG - October, 2019

Change the Weather History Date:

Sunday, October 6, 2019

  Actual Average Record
Temperature  
Mean Temperature 49 °F -  
Max Temperature 57 °F 58 °F 83 °F (1949)
Min Temperature 39 °F 33 °F 16 °F (1954)
Degree Days  
Heating Degree Days 16    
Moisture  
Dew Point 39 °F    
Average Humidity 69    
Maximum Humidity 93    
Minimum Humidity 41    
Precipitation  
Precipitation 0.00 in - - ()
Sea Level Pressure  
Sea Level Pressure 29.85 in    
Wind  
Wind Speed 16 mph (West)    
Max Wind Speed 31 mph    
Max Gust Speed 38 mph    
Visibility 10 miles    
Events      
Averages and records for this station are not official NWS values.
T = Trace of Precipitation, MM = Missing Value Source: NWS Daily Summary

Daily Weather History Graph

Daily Weather History Graph

Search for Another Location

Airport or City:

Astronomy

Oct. 06, 2019 Rise Set
Actual Time 7:46 AM CDT 7:09 PM CDT
Civil Twilight 7:15 AM CDT 7:40 PM CDT
Nautical Twilight 6:38 AM CDT 8:16 PM CDT
Astronomical Twilight 6:02 AM CDT 8:53 PM CDT
Moon 4:24 PM CDT (10/6) 12:09 AM CDT (10/6)
Length of Visible Light 12h 25m
Length of Day
11h 22m
First Quarter, 60% of the Moon is Illuminated
Oct 6
First Quarter
Oct 13
Full
Oct 21
Last Quarter
Oct 27
New
Nov 4
First Quarter

Hourly Weather History & Observations

Time (CDT) Temp. Windchill Dew Point Humidity Pressure Visibility Wind Dir Wind Speed Gust Speed Precip Events Conditions
12:15 AM 46.4 °F 41.1 °F 39.2 °F 76% 29.72 in 10.0 mi West 11.5 mph - N/A   Overcast
12:35 AM 46.4 °F 40.7 °F 39.2 °F 76% 29.71 in 10.0 mi West 12.7 mph 19.6 mph N/A   Overcast
12:55 AM 46.4 °F 40.7 °F 39.2 °F 76% 29.71 in 10.0 mi West 12.7 mph - N/A   Overcast
1:15 AM 46.4 °F 40.7 °F 39.2 °F 76% 29.71 in 10.0 mi West 12.7 mph - N/A   Overcast
1:35 AM 44.6 °F 38.8 °F 39.2 °F 81% 29.72 in 10.0 mi West 11.5 mph - N/A   Overcast
1:55 AM 44.6 °F 38.8 °F 39.2 °F 81% 29.72 in 10.0 mi West 11.5 mph - N/A   Overcast
2:15 AM 44.6 °F 38.1 °F 39.2 °F 81% 29.72 in 10.0 mi West 13.8 mph - N/A   Overcast
2:35 AM 44.6 °F 37.8 °F 39.2 °F 81% 29.73 in 10.0 mi West 15.0 mph - N/A   Overcast
2:55 AM 44.6 °F 37.8 °F 39.2 °F 81% 29.74 in 10.0 mi West 15.0 mph - N/A   Overcast
3:15 AM 46.4 °F 40.4 °F 39.2 °F 76% 29.74 in 10.0 mi West 13.8 mph - N/A   Overcast
3:35 AM 46.4 °F 39.8 °F 39.2 °F 76% 29.74 in 10.0 mi West 16.1 mph 24.2 mph N/A   Overcast
3:55 AM 46.4 °F 40.4 °F 41.0 °F 81% 29.75 in 10.0 mi West 13.8 mph - N/A   Overcast
4:15 AM 46.4 °F 39.8 °F 41.0 °F 81% 29.75 in 10.0 mi West 16.1 mph 21.9 mph N/A   Overcast
4:35 AM 46.4 °F 39.8 °F 41.0 °F 81% 29.75 in 10.0 mi West 16.1 mph - N/A   Overcast
4:55 AM 44.6 °F 38.4 °F 41.0 °F 87% 29.76 in 10.0 mi West 12.7 mph - N/A   Mostly Cloudy
5:15 AM 46.4 °F 39.2 °F 41.0 °F 81% 29.76 in 10.0 mi West 18.4 mph - N/A   Overcast
5:35 AM 46.4 °F 39.5 °F 41.0 °F 81% 29.77 in 10.0 mi West 17.3 mph - N/A   Mostly Cloudy
5:55 AM 46.4 °F 39.5 °F 42.8 °F 87% 29.78 in 10.0 mi West 17.3 mph - N/A   Mostly Cloudy
6:15 AM 44.6 °F 36.6 °F 42.8 °F 93% 29.78 in 9.0 mi West 19.6 mph - N/A   Mostly Cloudy
6:35 AM 44.6 °F 38.4 °F 42.8 °F 93% 29.78 in 10.0 mi WSW 12.7 mph 19.6 mph N/A   Unknown
6:55 AM 44.6 °F 37.8 °F 42.8 °F 93% 29.79 in 10.0 mi West 15.0 mph - N/A   Overcast
7:15 AM 46.4 °F 39.8 °F 42.8 °F 87% 29.80 in 10.0 mi West 16.1 mph 21.9 mph N/A   Overcast
7:35 AM 46.4 °F 39.2 °F 42.8 °F 87% 29.80 in 10.0 mi West 18.4 mph 25.3 mph N/A   Overcast
7:55 AM 46.4 °F 39.2 °F 41.0 °F 81% 29.80 in 10.0 mi West 18.4 mph - N/A   Overcast
8:15 AM 46.4 °F 39.2 °F 41.0 °F 81% 29.81 in 10.0 mi West 18.4 mph - N/A   Overcast
8:35 AM 46.4 °F 39.0 °F 41.0 °F 81% 29.82 in 10.0 mi West 19.6 mph 29.9 mph N/A   Overcast
8:55 AM 46.4 °F 38.5 °F 41.0 °F 81% 29.83 in 10.0 mi WNW 21.9 mph 27.6 mph N/A   Overcast
9:15 AM 48.2 °F - 41.0 °F 76% 29.82 in 10.0 mi West 18.4 mph 27.6 mph N/A   Mostly Cloudy
9:35 AM 48.2 °F - 41.0 °F 76% 29.83 in 10.0 mi WNW 19.6 mph 26.5 mph N/A   Partly Cloudy
9:55 AM 48.2 °F - 41.0 °F 76% 29.84 in 10.0 mi West 25.3 mph - N/A   Partly Cloudy
10:15 AM 50.0 °F - 41.0 °F 71% 29.84 in 10.0 mi WNW 20.7 mph 29.9 mph N/A   Clear
10:35 AM 51.8 °F - 41.0 °F 67% 29.85 in 10.0 mi West 21.9 mph 33.4 mph N/A   Mostly Cloudy
10:55 AM 51.8 °F - 41.0 °F 67% 29.85 in 10.0 mi WNW 20.7 mph 32.2 mph N/A   Mostly Cloudy
11:15 AM 53.6 °F - 41.0 °F 62% 29.85 in 10.0 mi West 26.5 mph 38.0 mph N/A   Scattered Clouds
11:35 AM 53.6 °F - 41.0 °F 62% 29.85 in 10.0 mi WNW 26.5 mph 35.7 mph N/A   Partly Cloudy
11:55 AM 53.6 °F - 41.0 °F 62% 29.86 in 10.0 mi WNW 28.8 mph 38.0 mph N/A   Scattered Clouds
12:15 PM 55.4 °F - 39.2 °F 54% 29.86 in 10.0 mi WNW 28.8 mph 36.8 mph N/A   Partly Cloudy
12:35 PM 55.4 °F - 39.2 °F 54% 29.87 in 10.0 mi WNW 27.6 mph 36.8 mph N/A   Partly Cloudy
12:55 PM 53.6 °F - 37.4 °F 54% 29.87 in 10.0 mi WNW 31.1 mph 38.0 mph N/A   Clear
1:15 PM 55.4 °F - 37.4 °F 51% 29.88 in 10.0 mi WNW 21.9 mph 36.8 mph N/A   Clear
1:35 PM 55.4 °F - 37.4 °F 51% 29.89 in 10.0 mi WNW 21.9 mph 33.4 mph N/A   Clear
1:55 PM 55.4 °F - 37.4 °F 51% 29.89 in 10.0 mi West 24.2 mph 34.5 mph N/A   Clear
2:15 PM 57.2 °F - 35.6 °F 44% 29.89 in 10.0 mi WNW 25.3 mph 34.5 mph N/A   Partly Cloudy
2:35 PM 55.4 °F - 37.4 °F 51% 29.89 in 10.0 mi NW 23.0 mph 31.1 mph N/A   Scattered Clouds
2:55 PM 57.2 °F - 39.2 °F 51% 29.89 in 10.0 mi WNW 20.7 mph - N/A   Mostly Cloudy
3:15 PM 57.2 °F - 39.2 °F 51% 29.89 in 10.0 mi West 26.5 mph 33.4 mph N/A   Mostly Cloudy
3:35 PM 55.4 °F - 37.4 °F 51% 29.89 in 10.0 mi WNW 24.2 mph 35.7 mph N/A   Partly Cloudy
3:55 PM 57.2 °F - 39.2 °F 51% 29.89 in 10.0 mi WNW 24.2 mph 32.2 mph N/A   Clear
4:15 PM 57.2 °F - 37.4 °F 48% 29.89 in 10.0 mi WNW 24.2 mph 33.4 mph N/A   Clear
4:35 PM 57.2 °F - 37.4 °F 48% 29.90 in 10.0 mi WNW 20.7 mph 29.9 mph N/A   Scattered Clouds
4:55 PM 57.2 °F - 35.6 °F 44% 29.90 in 10.0 mi WNW 24.2 mph 31.1 mph N/A   Partly Cloudy
5:15 PM 57.2 °F - 35.6 °F 44% 29.90 in 10.0 mi WNW 25.3 mph 32.2 mph N/A   Clear
5:35 PM 57.2 °F - 33.8 °F 41% 29.90 in 10.0 mi WNW 23.0 mph 32.2 mph N/A   Clear
5:55 PM 55.4 °F - 35.6 °F 47% 29.91 in 10.0 mi West 17.3 mph 27.6 mph N/A   Scattered Clouds
6:15 PM 57.2 °F - 35.6 °F 44% 29.91 in 10.0 mi WNW 18.4 mph 28.8 mph N/A   Mostly Cloudy
6:35 PM 55.4 °F - 35.6 °F 47% 29.91 in 10.0 mi West 17.3 mph 23.0 mph N/A   Scattered Clouds
6:55 PM 53.6 °F - 35.6 °F 51% 29.92 in 10.0 mi West 15.0 mph - N/A   Mostly Cloudy
7:15 PM 51.8 °F - 37.4 °F 58% 29.93 in 10.0 mi West 10.4 mph - N/A   Scattered Clouds
7:35 PM 50.0 °F - 37.4 °F 62% 29.93 in 10.0 mi West 11.5 mph - N/A   Partly Cloudy
7:55 PM 48.2 °F - 37.4 °F 66% 29.94 in 10.0 mi West 11.5 mph - N/A   Clear
8:15 PM 46.4 °F 41.9 °F 37.4 °F 71% 29.95 in 10.0 mi West 9.2 mph - N/A   Clear
8:35 PM 44.6 °F 39.2 °F 37.4 °F 76% 29.95 in 10.0 mi West 10.4 mph - N/A   Clear
8:55 PM 44.6 °F 39.7 °F 37.4 °F 76% 29.95 in 10.0 mi West 9.2 mph - N/A   Clear
9:15 PM 44.6 °F 39.2 °F 37.4 °F 76% 29.96 in 10.0 mi West 10.4 mph - N/A   Clear
9:35 PM 44.6 °F 38.8 °F 37.4 °F 76% 29.96 in 10.0 mi West 11.5 mph - N/A   Mostly Cloudy
9:55 PM 46.4 °F 41.5 °F 37.4 °F 71% 29.97 in 10.0 mi West 10.4 mph - N/A   Overcast
10:15 PM 46.4 °F 41.1 °F 37.4 °F 71% 29.98 in 10.0 mi West 11.5 mph - N/A   Mostly Cloudy
10:35 PM 44.6 °F 38.8 °F 37.4 °F 76% 29.98 in 10.0 mi West 11.5 mph - N/A   Clear
10:55 PM 42.8 °F 37.0 °F 37.4 °F 81% 29.98 in 10.0 mi West 10.4 mph - N/A   Clear
11:15 PM 44.6 °F 39.2 °F 37.4 °F 76% 29.98 in 10.0 mi WNW 10.4 mph - N/A   Clear
11:35 PM 41.0 °F 34.7 °F 37.4 °F 87% 29.99 in 10.0 mi West 10.4 mph - N/A   Clear
11:55 PM 39.2 °F 34.2 °F 35.6 °F 87% 30.00 in 10.0 mi West 6.9 mph - N/A   Clear